Location: Amsterdam
(30.7274°N, 84.4357°W)
Time: 00:23:32
(UTC+00:00)

Tiros 1 - Pass Details

Date: 16 February 2026
Orbit: 618 x 649 km, 48.4° (Epoch: 10 March)

Event Time Altitude Azimuth Distance (km) Brightness Sun altitude
Rises 12:25:09 0° 191° (S) 2,913 10.6 0.8°
Reaches altitude 10° 12:28:05 10° 173° (S) 2,002 10.0 1.4°
Maximum altitude 12:31:14 18° 129° (SE) 1,524 10.4 2.0°
Drops below altitude 10° 12:34:23 10° 85° (E) 1,995 11.2 2.7°
Sets 12:37:16 0° 67° (ENE) 2,899 11.4 3.3°
